PDT,Max TemperatureF,Mean TemperatureF,Min TemperatureF,Max Dew PointF,MeanDew PointF,Min DewpointF,Max Humidity, Mean Humidity, Min Humidity, Max Sea Level PressureIn, Mean Sea Level PressureIn, Min Sea Level PressureIn, Max VisibilityMiles, Mean VisibilityMiles, Min VisibilityMiles, Max Wind SpeedMPH, Mean Wind SpeedMPH, Max Gust SpeedMPH,PrecipitationIn, CloudCover, Events, WindDirDegrees
2012-10-1,101,74,47,46,40,25,80,44,8,29.98,29.92,29.86,10,10,10,12,2,15,0.00,0,,176
2012-10-2,102,76,50,46,41,35,71,41,11,29.86,29.81,29.74,10,10,10,12,2,14,0.00,0,,190
2012-10-3,89,70,51,55,48,42,87,53,19,29.98,29.86,29.78,10,10,10,15,5,18,0.00,2,,193
2012-10-4,70,61,51,54,52,49,89,72,55,30.11,30.06,29.99,10,10,6,14,5,17,0.00,5,,207
2012-10-5,74,61,47,53,50,46,96,72,47,30.14,30.10,30.04,10,8,0,17,5,21,0.00,4,Fog,254
2012-10-6,74,59,44,52,47,43,100,72,44,30.07,30.03,29.94,10,5,0,15,3,17,0.00,3,Fog,141
2012-10-7,77,62,47,52,49,46,96,67,38,30.01,29.96,29.90,10,7,1,13,3,18,0.00,4,,197
2012-10-8,72,57,41,50,46,39,100,72,44,30.02,29.99,29.96,10,8,0,15,4,18,0.00,1,Fog,237
2012-10-9,73,59,45,50,47,44,100,71,41,30.03,29.99,29.91,10,6,0,12,2,15,0.00,3,Fog,275
2012-10-10,78,61,43,50,47,41,100,66,31,29.96,29.92,29.82,10,7,0,15,4,17,0.01,3,Fog,153
2012-10-11,58,55,51,50,49,48,96,84,72,29.93,29.89,29.84,10,10,6,10,4,13,T,8,,199
2012-10-12,64,55,45,50,48,45,93,75,56,30.21,30.07,29.93,10,10,10,9,3,12,0.00,7,,197
2012-10-13,78,61,44,56,49,43,100,71,42,30.29,30.22,30.13,10,10,10,12,3,15,0.00,1,,228
2012-10-14,81,67,52,57,54,52,100,73,45,30.22,30.14,30.04,10,5,0,12,2,15,0.00,4,Fog,161
2012-10-15,85,68,50,60,53,50,100,66,31,30.10,30.03,29.91,10,5,0,14,2,17,0.01,3,Fog,264
2012-10-16,89,74,58,62,57,50,90,62,34,29.97,29.91,29.82,10,10,10,16,7,22,0.00,0,,342
2012-10-17,92,70,47,50,42,34,93,54,14,29.89,29.85,29.76,10,10,10,12,3,14,0.00,0,,334
2012-10-18,91,67,43,58,46,38,87,53,19,30.02,29.93,29.86,10,10,10,17,3,22,0.00,1,,202
2012-10-19,76,66,56,57,55,53,93,72,50,30.04,29.97,29.90,10,10,10,12,3,15,0.00,5,,168
2012-10-20,80,63,46,54,50,31,100,59,18,29.91,29.85,29.74,10,6,0,14,3,21,0.00,3,Fog,219
2012-10-21,68,54,39,50,40,29,93,59,24,29.91,29.85,29.81,10,10,10,15,3,20,0.06,3,Rain,187
2012-10-22,61,55,48,52,49,42,100,77,53,29.90,29.79,29.70,10,7,1,21,6,41,1.13,7,Rain,194
2012-10-23,63,53,42,48,44,39,100,72,43,30.05,29.98,29.91,10,8,0,13,2,16,0.23,4,Fog-Rain,227
2012-10-24,64,57,50,52,49,43,100,76,51,30.18,30.07,29.99,10,9,2,14,3,17,0.04,7,Rain,224
2012-10-25,70,58,46,52,48,36,100,66,32,30.25,30.21,30.18,10,8,3,13,3,16,0.06,5,Rain,17
2012-10-26,77,60,43,52,46,40,96,63,29,30.22,30.14,30.07,10,10,10,8,2,9,0.00,0,,194
2012-10-27,84,66,48,58,53,48,93,65,37,30.06,30.00,29.92,10,10,10,8,2,10,0.00,0,,317
2012-10-28,82,66,49,57,52,48,100,70,39,30.01,29.96,29.91,10,7,0,13,3,15,0.00,0,Fog,233
2012-10-29,78,61,44,56,49,43,100,68,36,30.11,30.05,30.00,10,4,0,8,1,9,0.00,4,Fog,178
2012-10-30,71,60,48,57,52,46,100,81,61,30.06,30.01,29.94,10,4,0,9,3,12,0.00,6,Fog,152
2012-10-31,61,58,54,57,55,54,100,89,78,30.00,29.97,29.93,10,5,1,12,3,15,0.86,8,Rain,164